Regional Weather Roundup
Issued by NWS

Home | Current Version | Previous Version | Graphics & Text | Print | Product List | Glossary On
Versions: 1 2 3 4 5 6 7 8 9 10 11 12 13 14 15 16 17 18 19 20 21 22 23 24 25 26 27 28 29 30 31 32 33 34 35 36 37 38 39 40 41 42 43 44 45 46 47 48 49 50
000
ASUS43 KLMK 260110
RWRKY
KENTUCKY REGIONAL WEATHER ROUNDUP
NATIONAL WEATHER SERVICE LOUISVILLE KY
900 PM EDT TUE JUL 25 2017

NOTE "FAIR" INDICATES FEW OR NO CLOUDS BELOW 12,000 FEET
WITH NO SIGNIFICANT WEATHER AND/OR OBSTRUCTIONS TO VISIBILITY.

KYZ001>023-026-027-061>063-070>075-260200-
WESTERN AND SOUTH CENTRAL KENTUCKY

CITY           SKY/WX    TMP DP  RH WIND       PRES   REMARKS
PADUCAH        PTCLDY    81  74  79 E5        30.06R
HENDERSON      PTCLDY    82  72  71 E8        30.09S
OWENSBORO      PTCLDY    83  70  64 E12       30.09S
HOPKINSVILLE   CLOUDY    81  75  80 N6        30.08R
BOWLING GREEN  CLEAR     83  71  67 E9        30.09R
GLASGOW        CLEAR     81  67  61 NE5       30.11R
$$

KYZ024-025-028>034-038-045-046-053-260200-
NORTH CENTRAL KENTUCKY

CITY           SKY/WX    TMP DP  RH WIND       PRES   REMARKS
LOUISVILLE/SDF PTCLDY    82  64  54 NE9       30.11S
LOUISVILLE/LOU CLEAR     81  66  60 NE7       30.13R
FORT KNOX      CLEAR     80  67  65 E6        30.11R
$$

KYZ035>037-039>044-047>052-055>060-089>105-260200-
NORTHEAST KENTUCKY

CITY           SKY/WX    TMP DP  RH WIND       PRES   REMARKS
LEXINGTON      CLEAR     75  60  59 NE8       30.16R
COVINGTON      PTCLDY    74  62  66 E10       30.17R
FRANKFORT      CLEAR     79  61  53 NE5       30.14R
$$

KYZ054-064>069-076>088-106>120-260200-
SOUTHEAST KENTUCKY

CITY           SKY/WX    TMP DP  RH WIND       PRES   REMARKS
JACKSON        CLEAR     73  63  70 CALM      30.16S
LONDON         CLEAR     77  66  68 NE6       30.13F
SOMERSET       CLEAR     77  63  61 N5        30.13S
MIDDLESBORO    CLEAR     77  69  75 CALM      30.13S
MONTICELLO     CLEAR     72  70  93 N15       30.14R
$$





USA.gov is the U.S. government's official web portal to all federal, state and local government web resources and services.